,,,PA_Meas_PMT16A,,PR_Meas_QMR101_102,,RH_Meas_QMH101,,SR_Meas_QMS101,,TA_Meas_QMH101,,GenWind,,GenWind,
date,time,status,PA,status,PR,status,RH,status,SR,status,TA,status,DirAvg,status,SpdAvg,
2011-12-16, 00:00:04,VALID,997.924,VALID,0,VALID,93.1882,VALID,0,VALID,23.8165,VALID,160,VALID,0.0148437,
2011-12-16, 00:01:04,VALID,997.927,VALID,0,VALID,93.1653,VALID,0,VALID,23.8183,VALID,160,VALID,0.451562,
2011-12-16, 00:02:04,VALID,997.944,VALID,0,VALID,93.1424,VALID,0,VALID,23.8183,VALID,160,VALID,0.398828,
2011-12-16, 00:03:04,VALID,997.915,VALID,0,VALID,93.1119,VALID,0,VALID,23.797,VALID,160,VALID,0.423047,
2011-12-16, 00:04:04,VALID,997.933,VALID,0,VALID,93.0737,VALID,0,VALID,23.8165,VALID,160,VALID,0.208594,
2011-12-16, 00:05:04,VALID,997.94,VALID,0,VALID,93.0585,VALID,0,VALID,23.797,VALID,160,VALID,0,
2011-12-16, 00:06:04,VALID,997.929,VALID,0,VALID,93.0661,VALID,0,VALID,23.7988,VALID,160,VALID,0.310937,
2011-12-16, 00:07:04,VALID,997.964,VALID,0,VALID,93.0356,VALID,0,VALID,23.7793,VALID,160,VALID,0.885938,
2011-12-16, 00:08:04,VALID,997.972,VALID,0,VALID,93.0737,VALID,0,VALID,23.7579,VALID,160,VALID,1.02148,
2011-12-16, 00:09:04,VALID,997.963,VALID,0,VALID,93.0966,VALID,0,VALID,23.7579,VALID,75,VALID,0.894531,
2011-12-16, 00:10:04,VALID,997.986,VALID,0,VALID,93.1424,VALID,0,VALID,23.7988,VALID,13,VALID,0.534766,
2011-12-16, 00:11:04,VALID,997.969,VALID,0,VALID,93.1805,VALID,0,VALID,23.797,VALID,82,VALID,1.02109,
2011-12-16, 00:12:04,VALID,997.972,VALID,0,VALID,93.1958,VALID,0,VALID,23.8378,VALID,99,VALID,1.17969,
2011-12-16, 00:13:04,VALID,997.961,VALID,0,VALID,93.1271,VALID,0,VALID,23.8768,VALID,108,VALID,0.901563,
2011-12-16, 00:14:04,VALID,997.968,VALID,0,VALID,93.0585,VALID,0,VALID,23.8555,VALID,108,VALID,0.948047,
2011-12-16, 00:15:04,VALID,997.958,VALID,0,VALID,92.9211,VALID,0,VALID,23.8768,VALID,108,VALID,0.65,
2011-12-16, 00:16:04,VALID,997.946,VALID,0,VALID,92.7838,VALID,0,VALID,23.8786,VALID,103,VALID,0.447656,
2011-12-16, 00:17:04,VALID,997.93,VALID,0,VALID,92.7075,VALID,0,VALID,23.8573,VALID,360,VALID,0.835547,
2011-12-16, 00:18:04,VALID,997.925,VALID,0,VALID,92.6999,VALID,0,VALID,23.8378,VALID,359,VALID,0.541406,
2011-12-16, 00:19:04,VALID,997.914,VALID,0,VALID,92.7457,VALID,0,VALID,23.8165,VALID,359,VALID,0.403125,
2011-12-16, 00:20:04,VALID,997.903,VALID,0,VALID,92.7991,VALID,0,VALID,23.8183,VALID,359,VALID,0.551953,
2011-12-16, 00:21:04,VALID,997.925,VALID,0,VALID,92.8372,VALID,0,VALID,23.8378,VALID,47,VALID,0.597656,
2011-12-16, 00:22:04,VALID,997.948,VALID,0,VALID,92.7838,VALID,0,VALID,23.797,VALID,57,VALID,0.666016,
2011-12-16, 00:23:04,VALID,997.956,VALID,0,VALID,92.7533,VALID,0,VALID,23.797,VALID,57,VALID,0.275781,
2011-12-16, 00:24:04,VALID,997.951,VALID,0,VALID,92.677,VALID,0,VALID,23.797,VALID,57,VALID,0,
2011-12-16, 00:25:04,VALID,997.949,VALID,0,VALID,92.6007,VALID,0,VALID,23.7988,VALID,57,VALID,0,
2011-12-16, 00:26:04,VALID,997.949,VALID,0,VALID,92.5244,VALID,0,VALID,23.7988,VALID,57,VALID,0,
2011-12-16, 00:27:04,VALID,997.987,VALID,0,VALID,92.4557,VALID,0,VALID,23.7597,VALID,57,VALID,0,
2011-12-16, 00:28:04,VALID,997.938,VALID,0,VALID,92.471,VALID,0,VALID,23.7207,VALID,57,VALID,0.490234,
2011-12-16, 00:29:04,VALID,997.934,VALID,0,VALID,92.5626,VALID,0,VALID,23.7189,VALID,56,VALID,0.810156,
2011-12-16, 00:30:04,VALID,997.932,VALID,0,VALID,92.6694,VALID,0,VALID,23.7207,VALID,55,VALID,0.944922,
2011-12-16, 00:31:04,VALID,997.895,VALID,0,VALID,92.6923,VALID,0,VALID,23.6994,VALID,44,VALID,0.983203,
2011-12-16, 00:32:04,VALID,997.9,VALID,0,VALID,92.7609,VALID,0,VALID,23.7189,VALID,53,VALID,0.873438,
2011-12-16, 00:33:04,VALID,997.884,VALID,0,VALID,92.6846,VALID,0,VALID,23.7207,VALID,53,VALID,0.734375,
2011-12-16, 00:34:04,VALID,997.855,VALID,0,VALID,92.6846,VALID,0,VALID,23.6817,VALID,45,VALID,0.834766,
2011-12-16, 00:35:04,VALID,997.82,VALID,0,VALID,92.7075,VALID,0,VALID,23.6214,VALID,45,VALID,0.743359,
2011-12-16, 00:36:04,VALID,997.746,VALID,0,VALID,92.7685,VALID,0,VALID,23.5823,VALID,45,VALID,0.665625,
2011-12-16, 00:37:04,VALID,997.767,VALID,0,VALID,92.9364,VALID,0,VALID,23.6036,VALID,45,VALID,0.634375,
2011-12-16, 00:38:04,VALID,997.747,VALID,0,VALID,93.0432,VALID,0,VALID,23.5823,VALID,45,VALID,0.542969,
2011-12-16, 00:39:04,VALID,997.758,VALID,0,VALID,93.0661,VALID,0,VALID,23.5433,VALID,45,VALID,0.597266,
2011-12-16, 00:40:04,VALID,997.74,VALID,0,VALID,93.1348,VALID,0,VALID,23.5256,VALID,45,VALID,0.535937,
2011-12-16, 00:41:04,VALID,997.718,VALID,0,VALID,93.1958,VALID,0,VALID,23.5256,VALID,45,VALID,0.346875,
2011-12-16, 00:42:04,VALID,997.707,VALID,0,VALID,93.2492,VALID,0,VALID,23.5256,VALID,45,VALID,0.216797,
2011-12-16, 00:43:04,VALID,997.695,VALID,0,VALID,93.3026,VALID,0,VALID,23.5256,VALID,45,VALID,0.394531,
2011-12-16, 00:44:04,VALID,997.697,VALID,0,VALID,93.3255,VALID,0,VALID,23.5061,VALID,45,VALID,0.251172,
2011-12-16, 00:45:04,VALID,997.695,VALID,0,VALID,93.356,VALID,0,VALID,23.5061,VALID,45,VALID,0.207031,
2011-12-16, 00:46:04,VALID,997.687,VALID,0,VALID,93.4018,VALID,0,VALID,23.5061,VALID,45,VALID,0.06875,
2011-12-16, 00:47:04,VALID,997.634,VALID,0,VALID,93.4094,VALID,0,VALID,23.5256,VALID,45,VALID,0,
2011-12-16, 00:48:04,VALID,997.627,VALID,0,VALID,93.44,VALID,0,VALID,23.5256,VALID,45,VALID,0,
2011-12-16, 00:49:04,VALID,997.602,VALID,0,VALID,93.4171,VALID,0,VALID,23.5061,VALID,45,VALID,0,
2011-12-16, 00:50:04,VALID,997.605,VALID,0,VALID,93.4628,VALID,0,VALID,23.5256,VALID,45,VALID,0.144141,
2011-12-16, 00:51:04,VALID,997.589,VALID,0,VALID,93.4781,VALID,0,VALID,23.5469,VALID,45,VALID,0,
2011-12-16, 00:52:04,VALID,997.576,VALID,0,VALID,93.4323,VALID,0,VALID,23.5061,VALID,45,VALID,0,
2011-12-16, 00:53:04,VALID,997.602,VALID,0,VALID,93.4171,VALID,0,VALID,23.5061,VALID,45,VALID,0.296875,
2011-12-16, 00:54:04,VALID,997.571,VALID,0,VALID,93.3866,VALID,0,VALID,23.5274,VALID,45,VALID,0.268359,
2011-12-16, 00:55:04,VALID,997.533,VALID,0,VALID,93.3484,VALID,0,VALID,23.4848,VALID,45,VALID,0.314063,
2011-12-16, 00:56:04,VALID,997.537,VALID,0,VALID,93.356,VALID,0,VALID,23.5043,VALID,158,VALID,0.730078,
2011-12-16, 00:57:04,VALID,997.521,VALID,0,VALID,93.4018,VALID,0,VALID,23.5628,VALID,158,VALID,0.860156,
2011-12-16, 00:58:04,VALID,997.518,VALID,0,VALID,93.3713,VALID,0,VALID,23.6427,VALID,159,VALID,0.942578,
2011-12-16, 00:59:04,VALID,997.489,VALID,0,VALID,93.2645,VALID,0,VALID,23.6799,VALID,160,VALID,1.37773,
2011-12-16, 01:00:04,VALID,997.494,VALID,0,VALID,93.1119,VALID,0,VALID,23.7189,VALID,147,VALID,1.12891,
2011-12-16, 01:01:04,VALID,997.505,VALID,0,VALID,92.8448,VALID,0.104696,VALID,23.7384,VALID,147,VALID,0.942578,
2011-12-16, 01:02:04,VALID,997.482,VALID,0,VALID,92.6694,VALID,0,VALID,23.7384,VALID,147,VALID,0.821875,
2011-12-16, 01:03:04,VALID,997.445,VALID,0,VALID,92.4634,VALID,0,VALID,23.7402,VALID,147,VALID,0.5375,
2011-12-16, 01:04:04,VALID,997.455,VALID,0,VALID,92.3642,VALID,0,VALID,23.7189,VALID,147,VALID,0.535547,
2011-12-16, 01:05:04,VALID,997.437,VALID,0,VALID,92.2955,VALID,0,VALID,23.7207,VALID,147,VALID,0.669922,
2011-12-16, 01:06:04,VALID,997.416,VALID,0,VALID,92.2574,VALID,0,VALID,23.6799,VALID,147,VALID,0.558594,
2011-12-16, 01:07:04,VALID,997.4,VALID,0,VALID,92.3184,VALID,0,VALID,23.6604,VALID,147,VALID,0.279687,
2011-12-16, 01:08:04,VALID,997.369,VALID,0,VALID,92.3794,VALID,0,VALID,23.6409,VALID,147,VALID,0.298047,
2011-12-16, 01:09:04,VALID,997.36,VALID,0,VALID,92.5168,VALID,0,VALID,23.6409,VALID,147,VALID,0.387109,
2011-12-16, 01:10:04,VALID,997.369,VALID,0,VALID,92.5854,VALID,0,VALID,23.6622,VALID,147,VALID,0.668359,
2011-12-16, 01:11:04,VALID,997.352,VALID,0,VALID,92.6694,VALID,0,VALID,23.6622,VALID,147,VALID,0.644922,
2011-12-16, 01:12:04,VALID,997.358,VALID,0,VALID,92.7304,VALID,0,VALID,23.6835,VALID,147,VALID,0.692969,
2011-12-16, 01:13:04,VALID,997.381,VALID,0,VALID,92.738,VALID,0,VALID,23.6622,VALID,103,VALID,0.807422,
2011-12-16, 01:14:04,VALID,997.402,VALID,0,VALID,92.6465,VALID,0,VALID,23.6232,VALID,75,VALID,0.729297,
2011-12-16, 01:15:04,VALID,997.434,VALID,0,VALID,92.6236,VALID,0,VALID,23.5841,VALID,56,VALID,1.01797,
2011-12-16, 01:16:04,VALID,997.444,VALID,0,VALID,92.6541,VALID,0,VALID,23.5451,VALID,50,VALID,0.884375,
2011-12-16, 01:17:04,VALID,997.455,VALID,0,VALID,92.6617,VALID,0,VALID,23.4866,VALID,50,VALID,0.576172,
2011-12-16, 01:18:04,VALID,997.458,VALID,0,VALID,92.6846,VALID,0,VALID,23.428,VALID,29,VALID,0.719141,
2011-12-16, 01:19:04,VALID,997.467,VALID,0,VALID,92.7151,VALID,0,VALID,23.4103,VALID,29,VALID,0.525391,
2011-12-16, 01:20:04,VALID,997.467,VALID,0,VALID,92.7762,VALID,0,VALID,23.3518,VALID,22,VALID,0.776563,
2011-12-16, 01:21:04,VALID,997.463,VALID,0,VALID,92.944,VALID,0,VALID,23.311,VALID,339,VALID,0.585156,
2011-12-16, 01:22:04,VALID,997.431,VALID,0,VALID,93.1195,VALID,0,VALID,23.3323,VALID,339,VALID,0.508984,
2011-12-16, 01:23:04,VALID,997.392,VALID,0,VALID,93.2034,VALID,0,VALID,23.311,VALID,339,VALID,0.338672,
2011-12-16, 01:24:04,VALID,997.347,VALID,0,VALID,93.3255,VALID,0,VALID,23.3323,VALID,339,VALID,0.00585938,
2011-12-16, 01:25:04,VALID,997.323,VALID,0,VALID,93.3713,VALID,0,VALID,23.311,VALID,339,VALID,0,
2011-12-16, 01:26:04,VALID,997.295,VALID,0,VALID,93.4094,VALID,0,VALID,23.3323,VALID,339,VALID,0,
2011-12-16, 01:27:04,VALID,997.31,VALID,0,VALID,93.4552,VALID,0,VALID,23.2915,VALID,339,VALID,0,
2011-12-16, 01:28:04,VALID,997.294,VALID,0,VALID,93.4781,VALID,0,VALID,23.2915,VALID,339,VALID,0,
2011-12-16, 01:29:04,VALID,997.332,VALID,0,VALID,93.5163,VALID,0,VALID,23.311,VALID,339,VALID,0,
2011-12-16, 01:30:04,VALID,997.329,VALID,0,VALID,93.5544,VALID,0,VALID,23.3127,VALID,339,VALID,0,
2011-12-16, 01:31:04,VALID,997.342,VALID,0,VALID,93.5849,VALID,0,VALID,23.2915,VALID,339,VALID,0.053125,
2011-12-16, 01:32:04,VALID,997.359,VALID,0,VALID,93.6154,VALID,0,VALID,23.311,VALID,339,VALID,0.273047,
2011-12-16, 01:33:04,VALID,997.337,VALID,0,VALID,93.6536,VALID,0,VALID,23.311,VALID,339,VALID,0.444922,
2011-12-16, 01:34:04,VALID,997.348,VALID,0,VALID,93.6841,VALID,0,VALID,23.3323,VALID,339,VALID,0.602344,
2011-12-16, 01:35:04,VALID,997.36,VALID,0,VALID,93.6994,VALID,0,VALID,23.3305,VALID,339,VALID,0.729688,
2011-12-16, 01:36:04,VALID,997.345,VALID,0,VALID,93.6917,VALID,0,VALID,23.3305,VALID,355,VALID,0.856641,
2011-12-16, 01:37:04,VALID,997.326,VALID,0,VALID,93.707,VALID,0,VALID,23.3305,VALID,10,VALID,0.791016,
2011-12-16, 01:38:04,VALID,997.31,VALID,0,VALID,93.6612,VALID,0,VALID,23.311,VALID,10,VALID,0.895312,
2011-12-16, 01:39:04,VALID,997.304,VALID,0,VALID,93.6154,VALID,0,VALID,23.2719,VALID,10,VALID,0.751172,
2011-12-16, 01:40:04,VALID,997.31,VALID,0,VALID,93.5849,VALID,0,VALID,23.2737,VALID,10,VALID,0.549219,
2011-12-16, 01:41:04,VALID,997.253,VALID,0,VALID,93.5926,VALID,0,VALID,23.2329,VALID,10,VALID,0.438672,
2011-12-16, 01:42:04,VALID,997.219,VALID,0,VALID,93.5163,VALID,0,VALID,23.2152,VALID,10,VALID,0.334766,
2011-12-16, 01:43:04,VALID,997.173,VALID,0,VALID,93.5391,VALID,0,VALID,23.1957,VALID,10,VALID,0.437109,
2011-12-16, 01:44:04,VALID,997.168,VALID,0,VALID,93.5773,VALID,0,VALID,23.1744,VALID,10,VALID,0.451953,
2011-12-16, 01:45:04,VALID,997.146,VALID,0,VALID,93.6231,VALID,0,VALID,23.1957,VALID,10,VALID,0.4625,
2011-12-16, 01:46:04,VALID,997.143,VALID,0,VALID,93.6765,VALID,0,VALID,23.1939,VALID,10,VALID,0.455859,
2011-12-16, 01:47:04,VALID,997.128,VALID,0,VALID,93.707,VALID,0,VALID,23.2152,VALID,10,VALID,0.455078,
2011-12-16, 01:48:04,VALID,997.106,VALID,0,VALID,93.6994,VALID,0,VALID,23.1939,VALID,10,VALID,0.605469,
2011-12-16, 01:49:04,VALID,997.083,VALID,0,VALID,93.7146,VALID,0,VALID,23.1726,VALID,10,VALID,0.674609,
2011-12-16, 01:50:04,VALID,997.084,VALID,0,VALID,93.6994,VALID,0,VALID,23.1726,VALID,43,VALID,0.725781,
2011-12-16, 01:51:04,VALID,997.105,VALID,0,VALID,93.7299,VALID,0.104696,VALID,23.1726,VALID,59,VALID,0.710547,
2011-12-16, 01:52:04,VALID,997.116,VALID,0,VALID,93.6688,VALID,0,VALID,23.1336,VALID,62,VALID,0.554688,
2011-12-16, 01:53:04,VALID,997.092,VALID,0,VALID,93.6994,VALID,0.104696,VALID,23.1549,VALID,62,VALID,0.609375,
2011-12-16, 01:54:04,VALID,997.085,VALID,0,VALID,93.7223,VALID,0,VALID,23.1336,VALID,63,VALID,0.648438,
2011-12-16, 01:55:04,VALID,997.052,VALID,0,VALID,93.7451,VALID,0,VALID,23.1762,VALID,118,VALID,0.701172,
2011-12-16, 01:56:04,VALID,997.042,VALID,0,VALID,93.7299,VALID,0,VALID,23.1549,VALID,118,VALID,0.703125,
2011-12-16, 01:57:04,VALID,997.049,VALID,0,VALID,93.7604,VALID,0,VALID,23.1549,VALID,126,VALID,0.829297,
2011-12-16, 01:58:04,VALID,997.022,VALID,0,VALID,93.7604,VALID,0,VALID,23.1939,VALID,132,VALID,0.509375,
2011-12-16, 01:59:04,VALID,997.019,VALID,0,VALID,93.7833,VALID,0,VALID,23.2152,VALID,132,VALID,0.321875,
2011-12-16, 02:00:04,VALID,997.014,VALID,0,VALID,93.7757,VALID,0,VALID,23.2134,VALID,132,VALID,0.296875,
2011-12-16, 02:01:04,VALID,996.993,VALID,0,VALID,93.7604,VALID,0,VALID,23.2134,VALID,132,VALID,0,
2011-12-16, 02:02:04,VALID,996.988,VALID,0,VALID,93.7604,VALID,0,VALID,23.2134,VALID,132,VALID,0.0660156,
2011-12-16, 02:03:04,VALID,996.991,VALID,0,VALID,93.7451,VALID,0,VALID,23.2134,VALID,132,VALID,0.630859,
2011-12-16, 02:04:04,VALID,996.961,VALID,0,VALID,93.7528,VALID,0,VALID,23.2329,VALID,132,VALID,0.655859,
2011-12-16, 02:05:04,VALID,996.92,VALID,0,VALID,93.6994,VALID,0,VALID,23.2737,VALID,132,VALID,0.736719,
2011-12-16, 02:06:04,VALID,996.924,VALID,0,VALID,93.646,VALID,0,VALID,23.2737,VALID,143,VALID,0.813672,
2011-12-16, 02:07:04,VALID,996.94,VALID,0,VALID,93.6154,VALID,0,VALID,23.311,VALID,143,VALID,0.548047,
2011-12-16, 02:08:04,VALID,996.899,VALID,0,VALID,93.5697,VALID,0,VALID,23.3518,VALID,159,VALID,0.567187,
2011-12-16, 02:09:04,VALID,996.855,VALID,0,VALID,93.4934,VALID,0,VALID,23.3695,VALID,163,VALID,0.623438,
2011-12-16, 02:10:04,VALID,996.861,VALID,0,VALID,93.4323,VALID,0,VALID,23.3872,VALID,180,VALID,0.709766,
2011-12-16, 02:11:04,VALID,996.828,VALID,0,VALID,93.2874,VALID,0,VALID,23.4263,VALID,192,VALID,0.840234,
2011-12-16, 02:12:04,VALID,996.798,VALID,0,VALID,93.1882,VALID,0,VALID,23.4475,VALID,193,VALID,0.328906,
2011-12-16, 02:13:04,VALID,996.772,VALID,0,VALID,93.0508,VALID,0,VALID,23.4458,VALID,192,VALID,0.444922,
2011-12-16, 02:14:04,VALID,996.759,VALID,0,VALID,92.9059,VALID,0,VALID,23.4458,VALID,192,VALID,0.355859,
2011-12-16, 02:15:04,VALID,996.748,VALID,0,VALID,92.738,VALID,0,VALID,23.4671,VALID,183,VALID,0.435156,
2011-12-16, 02:16:04,VALID,996.759,VALID,0,VALID,92.5702,VALID,0,VALID,23.4475,VALID,183,VALID,0.408203,
2011-12-16, 02:17:04,VALID,996.8,VALID,0,VALID,92.4863,VALID,0,VALID,23.4671,VALID,125,VALID,0.660156,
2011-12-16, 02:18:04,VALID,996.753,VALID,0,VALID,92.3413,VALID,0.104696,VALID,23.4671,VALID,125,VALID,0.602344,
2011-12-16, 02:19:04,VALID,996.785,VALID,0,VALID,92.2345,VALID,0,VALID,23.4653,VALID,125,VALID,0.401953,
2011-12-16, 02:20:04,VALID,996.783,VALID,0,VALID,92.2116,VALID,0,VALID,23.4458,VALID,153,VALID,0.5875,
2011-12-16, 02:21:04,VALID,996.812,VALID,0,VALID,92.2192,VALID,0.104696,VALID,23.4458,VALID,155,VALID,0.401172,
2011-12-16, 02:22:04,VALID,996.815,VALID,0,VALID,92.2345,VALID,0,VALID,23.4263,VALID,155,VALID,0.0128906,
2011-12-16, 02:23:04,VALID,996.837,VALID,0,VALID,92.2421,VALID,0,VALID,23.4067,VALID,155,VALID,0,
2011-12-16, 02:24:04,VALID,996.837,VALID,0,VALID,92.2345,VALID,0.104696,VALID,23.3872,VALID,155,VALID,0,
2011-12-16, 02:25:04,VALID,996.852,VALID,0,VALID,92.265,VALID,0,VALID,23.3695,VALID,155,VALID,0,
2011-12-16, 02:26:04,VALID,996.836,VALID,0,VALID,92.3337,VALID,0,VALID,23.3695,VALID,155,VALID,0,
2011-12-16, 02:27:04,VALID,996.814,VALID,0,VALID,92.4023,VALID,0,VALID,23.35,VALID,155,VALID,0,
2011-12-16, 02:28:04,VALID,996.812,VALID,0,VALID,92.4863,VALID,0,VALID,23.3518,VALID,155,VALID,0,
2011-12-16, 02:29:04,VALID,996.767,VALID,0,VALID,92.5473,VALID,0,VALID,23.3518,VALID,155,VALID,0,
2011-12-16, 02:30:04,VALID,996.756,VALID,0,VALID,92.5473,VALID,0,VALID,23.2915,VALID,155,VALID,0.449609,
2011-12-16, 02:31:04,VALID,996.775,VALID,0,VALID,92.6465,VALID,0,VALID,23.2932,VALID,155,VALID,0.324609,
2011-12-16, 02:32:04,VALID,996.721,VALID,0,VALID,92.6236,VALID,0,VALID,23.2524,VALID,155,VALID,0.410937,
2011-12-16, 02:33:04,VALID,996.711,VALID,0,VALID,92.7533,VALID,0,VALID,23.2524,VALID,50,VALID,0.585547,
2011-12-16, 02:34:04,VALID,996.747,VALID,0,VALID,92.8983,VALID,0,VALID,23.2329,VALID,50,VALID,0.572266,
2011-12-16, 02:35:04,VALID,996.733,VALID,0,VALID,93.0127,VALID,0,VALID,23.2329,VALID,50,VALID,0.641016,
2011-12-16, 02:36:04,VALID,996.722,VALID,0,VALID,93.0432,VALID,0,VALID,23.2329,VALID,50,VALID,0.387109,
2011-12-16, 02:37:04,VALID,996.746,VALID,0,VALID,93.1119,VALID,0,VALID,23.2347,VALID,50,VALID,0.441016,
2011-12-16, 02:38:04,VALID,996.744,VALID,0,VALID,93.15,VALID,0,VALID,23.1957,VALID,50,VALID,0.290234,
2011-12-16, 02:39:04,VALID,996.732,VALID,0,VALID,93.1577,VALID,0,VALID,23.1762,VALID,50,VALID,0,
2011-12-16, 02:40:04,VALID,996.726,VALID,0,VALID,93.1958,VALID,0,VALID,23.1336,VALID,50,VALID,0,
2011-12-16, 02:41:04,VALID,996.72,VALID,0,VALID,93.2187,VALID,0,VALID,23.1141,VALID,50,VALID,0,
2011-12-16, 02:42:04,VALID,996.74,VALID,0,VALID,93.2721,VALID,0,VALID,23.1159,VALID,50,VALID,0,
2011-12-16, 02:43:04,VALID,996.701,VALID,0,VALID,93.2721,VALID,0,VALID,23.0556,VALID,50,VALID,0,
2011-12-16, 02:44:04,VALID,996.681,VALID,0,VALID,93.3179,VALID,0,VALID,23.0769,VALID,50,VALID,0.167187,
2011-12-16, 02:45:04,VALID,996.663,VALID,0,VALID,93.3713,VALID,0,VALID,23.0361,VALID,50,VALID,0.165234,
2011-12-16, 02:46:04,VALID,996.642,VALID,0,VALID,93.4247,VALID,0.104696,VALID,23.0573,VALID,50,VALID,0,
2011-12-16, 02:47:04,VALID,996.644,VALID,0,VALID,93.4781,VALID,0,VALID,23.0573,VALID,50,VALID,0,
2011-12-16, 02:48:04,VALID,996.593,VALID,0,VALID,93.4934,VALID,0,VALID,23.0183,VALID,50,VALID,0,
2011-12-16, 02:49:04,VALID,996.614,VALID,0,VALID,93.5086,VALID,0,VALID,23.0183,VALID,50,VALID,0,
2011-12-16, 02:50:04,VALID,996.561,VALID,0,VALID,93.562,VALID,0,VALID,22.9971,VALID,50,VALID,0.259766,
2011-12-16, 02:51:04,VALID,996.567,VALID,0,VALID,93.6307,VALID,0,VALID,23.0166,VALID,50,VALID,0,
2011-12-16, 02:52:04,VALID,996.525,VALID,0,VALID,93.6688,VALID,0,VALID,23.0573,VALID,50,VALID,0,
2011-12-16, 02:53:04,VALID,996.501,VALID,0,VALID,93.6917,VALID,0,VALID,23.0573,VALID,50,VALID,0,
2011-12-16, 02:54:04,VALID,996.469,VALID,0,VALID,93.6917,VALID,0,VALID,23.0361,VALID,50,VALID,0,
2011-12-16, 02:55:04,VALID,996.449,VALID,0,VALID,93.6841,VALID,0,VALID,23.0573,VALID,50,VALID,0,
2011-12-16, 02:56:04,VALID,996.446,VALID,0,VALID,93.6841,VALID,0,VALID,23.0378,VALID,50,VALID,0,
2011-12-16, 02:57:04,VALID,996.393,VALID,0,VALID,93.6917,VALID,0,VALID,23.0183,VALID,50,VALID,0,
2011-12-16, 02:58:04,VALID,996.356,VALID,0,VALID,93.7299,VALID,0,VALID,23.0183,VALID,50,VALID,0,
2011-12-16, 02:59:04,VALID,996.347,VALID,0,VALID,93.7375,VALID,0,VALID,22.9793,VALID,50,VALID,0,
2011-12-16, 03:00:04,VALID,996.317,VALID,0,VALID,93.768,VALID,0,VALID,22.9793,VALID,50,VALID,0,
2011-12-16, 03:01:04,VALID,996.305,VALID,0,VALID,93.7909,VALID,0,VALID,22.9776,VALID,50,VALID,0,
2011-12-16, 03:02:04,VALID,996.28,VALID,0,VALID,93.7985,VALID,0,VALID,22.9988,VALID,50,VALID,0,
2011-12-16, 03:03:04,VALID,996.28,VALID,0,VALID,93.8138,VALID,0,VALID,22.9776,VALID,50,VALID,0,
2011-12-16, 03:04:04,VALID,996.276,VALID,0,VALID,93.8214,VALID,0,VALID,22.9793,VALID,50,VALID,0,
2011-12-16, 03:05:04,VALID,996.3,VALID,0,VALID,93.8367,VALID,0,VALID,22.9385,VALID,50,VALID,0.100391,
2011-12-16, 03:06:04,VALID,996.297,VALID,0,VALID,93.8825,VALID,0,VALID,22.9598,VALID,50,VALID,0.683984,
2011-12-16, 03:07:04,VALID,996.3,VALID,0,VALID,93.8825,VALID,0,VALID,22.9598,VALID,50,VALID,0.769531,
2011-12-16, 03:08:04,VALID,996.275,VALID,0,VALID,93.8672,VALID,0,VALID,22.88,VALID,50,VALID,0.874609,
2011-12-16, 03:09:04,VALID,996.234,VALID,0,VALID,93.8748,VALID,0,VALID,22.8623,VALID,50,VALID,0.727344,
2011-12-16, 03:10:04,VALID,996.199,VALID,0,VALID,93.9283,VALID,0,VALID,22.8605,VALID,50,VALID,0.721094,
2011-12-16, 03:11:04,VALID,996.193,VALID,0,VALID,93.913,VALID,0,VALID,22.8605,VALID,51,VALID,0.748438,
2011-12-16, 03:12:04,VALID,996.175,VALID,0,VALID,93.9206,VALID,0,VALID,22.8605,VALID,68,VALID,0.832422,
2011-12-16, 03:13:04,VALID,996.159,VALID,0,VALID,93.8748,VALID,0,VALID,22.8623,VALID,68,VALID,0.748047,
2011-12-16, 03:14:04,VALID,996.124,VALID,0,VALID,93.852,VALID,0,VALID,22.8215,VALID,68,VALID,0.734766,
2011-12-16, 03:15:04,VALID,996.143,VALID,0,VALID,93.8672,VALID,0,VALID,22.8623,VALID,68,VALID,0.5,
2011-12-16, 03:16:04,VALID,996.173,VALID,0,VALID,93.852,VALID,0,VALID,22.8427,VALID,68,VALID,0.495703,
2011-12-16, 03:17:04,VALID,996.198,VALID,0,VALID,93.852,VALID,0,VALID,22.8215,VALID,68,VALID,0.288672,
2011-12-16, 03:18:04,VALID,996.205,VALID,0,VALID,93.8672,VALID,0,VALID,22.802,VALID,68,VALID,0.415625,
2011-12-16, 03:19:04,VALID,996.202,VALID,0,VALID,93.8748,VALID,0,VALID,22.8427,VALID,74,VALID,0.644922,
2011-12-16, 03:20:04,VALID,996.194,VALID,0,VALID,93.9359,VALID,0,VALID,22.8215,VALID,84,VALID,0.805469,
2011-12-16, 03:21:04,VALID,996.183,VALID,0,VALID,93.9206,VALID,0,VALID,22.8232,VALID,84,VALID,0.688672,
2011-12-16, 03:22:04,VALID,996.169,VALID,0,VALID,93.8977,VALID,0,VALID,22.8037,VALID,84,VALID,0.547266,
2011-12-16, 03:23:04,VALID,996.2,VALID,0,VALID,93.9283,VALID,0,VALID,22.8037,VALID,84,VALID,0.607422,
2011-12-16, 03:24:04,VALID,996.199,VALID,0,VALID,93.9359,VALID,0,VALID,22.8037,VALID,84,VALID,0.389062,
2011-12-16, 03:25:04,VALID,996.207,VALID,0,VALID,93.9511,VALID,0,VALID,22.7842,VALID,84,VALID,0.281641,
2011-12-16, 03:26:04,VALID,996.239,VALID,0,VALID,93.9588,VALID,0,VALID,22.7647,VALID,84,VALID,0,
2011-12-16, 03:27:04,VALID,996.255,VALID,0,VALID,93.9283,VALID,0,VALID,22.7257,VALID,84,VALID,0.148438,
2011-12-16, 03:28:04,VALID,996.279,VALID,0,VALID,93.913,VALID,0,VALID,22.7062,VALID,84,VALID,0.242188,
2011-12-16, 03:29:04,VALID,996.271,VALID,0,VALID,93.913,VALID,0,VALID,22.6867,VALID,84,VALID,0.151562,
2011-12-16, 03:30:04,VALID,996.275,VALID,0,VALID,93.8901,VALID,0,VALID,22.6672,VALID,84,VALID,0,
2011-12-16, 03:31:04,VALID,996.234,VALID,0,VALID,93.9283,VALID,0,VALID,22.6884,VALID,84,VALID,0,
2011-12-16, 03:32:04,VALID,996.209,VALID,0,VALID,93.9664,VALID,0,VALID,22.6672,VALID,84,VALID,0,
2011-12-16, 03:33:04,VALID,996.224,VALID,0,VALID,93.9969,VALID,0,VALID,22.7062,VALID,84,VALID,0.365625,
2011-12-16, 03:34:04,VALID,996.272,VALID,0,VALID,94.0274,VALID,0,VALID,22.7452,VALID,84,VALID,0.539063,
2011-12-16, 03:35:04,VALID,996.293,VALID,0,VALID,94.0656,VALID,0,VALID,22.7452,VALID,332,VALID,0.798047,
2011-12-16, 03:36:04,VALID,996.271,VALID,0,VALID,94.0732,VALID,0,VALID,22.7452,VALID,331,VALID,0.723828,
2011-12-16, 03:37:04,VALID,996.287,VALID,0,VALID,94.058,VALID,0,VALID,22.7647,VALID,331,VALID,0.492578,
2011-12-16, 03:38:04,VALID,996.317,VALID,0,VALID,94.0885,VALID,0,VALID,22.7842,VALID,3,VALID,0.703125,
2011-12-16, 03:39:04,VALID,996.324,VALID,0,VALID,94.1037,VALID,0,VALID,22.8037,VALID,3,VALID,0.764453,
2011-12-16, 03:40:04,VALID,996.321,VALID,0,VALID,94.0808,VALID,0,VALID,22.825,VALID,3,VALID,0.717578,
2011-12-16, 03:41:04,VALID,996.311,VALID,0,VALID,94.058,VALID,0,VALID,22.7842,VALID,3,VALID,0.584766,
2011-12-16, 03:42:04,VALID,996.311,VALID,0,VALID,94.0274,VALID,0,VALID,22.7257,VALID,3,VALID,0.441016,
2011-12-16, 03:43:04,VALID,996.308,VALID,0,VALID,94.0427,VALID,0,VALID,22.7257,VALID,3,VALID,0.491406,
2011-12-16, 03:44:04,VALID,996.317,VALID,0,VALID,94.0274,VALID,0,VALID,22.7452,VALID,291,VALID,0.644922,
2011-12-16, 03:45:04,VALID,996.296,VALID,0,VALID,94.058,VALID,0,VALID,22.786,VALID,296,VALID,1.20273,
2011-12-16, 03:46:04,VALID,996.328,VALID,0,VALID,94.0961,VALID,0,VALID,22.825,VALID,312,VALID,0.929297,
2011-12-16, 03:47:04,VALID,996.356,VALID,0,VALID,94.0732,VALID,0,VALID,22.8427,VALID,334,VALID,0.653125,
2011-12-16, 03:48:04,VALID,996.312,VALID,0,VALID,94.0045,VALID,0,VALID,22.8427,VALID,65,VALID,1.39102,